Weather History for Phoenix, AZ

Change the Weather History Date:

Tuesday, July 2, 2013

  Actual Average Record
Temperature  
Mean Temperature 36 °C 34 °C  
Max Temperature 42 °C 42 °C 47 °C (2011)
Min Temperature 29 °C 28 °C 18 °C (1911)
Degree Days  
Heating Degree Days 0 0  
Month to date heating degree days 0 0  
Since 1 June heating degree days 0 0  
Since 1 July heating degree days 0 0  
Cooling Degree Days 32 29  
Month to date cooling degree days 68 58  
Year to date cooling degree days 2068 1718  
Since 1 June cooling degree days 970 832  
Growing Degree Days 46 (Base 50)    
Moisture  
Dew Point 13 °C    
Average Humidity 29    
Maximum Humidity 40    
Minimum Humidity 17    
Precipitation  
Precipitation T mm 0.25 mm 7.14 mm (1911)
Month to date precipitation T 0.03  
Year to date precipitation 2.61 3.26  
Snow  
Snow 0.00 cm - - ()
Month to date snowfall 0.0  
Year to date snowfall 0.0  
Since 1 July snowfall 0.0  
Snow Depth -    
Sea Level Pressure  
Sea Level Pressure 1008 hPa    
Wind  
Wind Speed 18 km/h (SSW)    
Max Wind Speed 52 km/h    
Max Gust Speed 69 km/h    
Visibility 16 kilometers    
Events      
T = Trace of Precipitation, MM = Missing Value Source: NWS Daily Summary

Daily Weather History Graph

Daily Weather History Graph

Search for Another Location

Airport:

Trip Planner

Search our weather history database for the weather conditions in past years. The results will help you decide how hot, cold, wet, or windy it might be!

Date:

Astronomy

Jul. 02, 2013 Rise Set
Actual Time 5:22 AM MST 7:41 PM MST
Civil Twilight 4:53 AM MST 8:10 PM MST
Nautical Twilight 4:18 AM MST 8:45 PM MST
Astronomical Twilight 3:39 AM MST 9:24 PM MST
Moon 1:18 AM MST (7/2) 3:05 PM MST (7/2)
Length of Visible Light 15h 16m
Length of Day
14h 19m
Waning Crescent, 25% of the Moon is Illuminated
Jul 2
Waning Crescent
Jul 8
New
Jul 15
First Quarter
Jul 22
Full
Jul 29
Last Quarter

Hourly Weather History & Observations

Time (MST) Temp. Heat Index Dew Point Humidity Pressure Visibility Wind Dir Wind Speed Gust Speed Precip Events Conditions
12:51 AM 37.8 °C - 11.1 °C 20% 1005.5 hPa 16.1 km WSW 13.0 km/h / 3.6 m/s - N/A   Scattered Clouds
1:51 AM 37.8 °C - 11.1 °C 20% 1005.6 hPa 16.1 km West 16.7 km/h / 4.6 m/s - N/A   Scattered Clouds
2:51 AM 36.1 °C 34.8 °C 11.7 °C 23% 1006.9 hPa 16.1 km ESE 25.9 km/h / 7.2 m/s 31.5 km/h / 8.7 m/s N/A   Scattered Clouds
3:51 AM 34.4 °C 33.8 °C 14.4 °C 30% 1008.3 hPa 16.1 km SE 31.5 km/h / 8.7 m/s 55.6 km/h / 15.4 m/s N/A   Scattered Clouds
4:51 AM 32.8 °C 32.4 °C 15.0 °C 34% 1010.0 hPa 14.5 km SSE 38.9 km/h / 10.8 m/s 63.0 km/h / 17.5 m/s N/A   Scattered Clouds
5:51 AM 31.1 °C 31.0 °C 16.1 °C 40% 1011.0 hPa 8.0 km SSE 35.2 km/h / 9.8 m/s 55.6 km/h / 15.4 m/s N/A   Mostly Cloudy
7:51 AM 31.7 °C 32.2 °C 17.2 °C 42% 1012.8 hPa 16.1 km ESE 16.7 km/h / 4.6 m/s - 0.0 mm   Mostly Cloudy
8:51 AM 33.3 °C 33.2 °C 16.1 °C 35% 1012.7 hPa 16.1 km Variable 11.1 km/h / 3.1 m/s - N/A   Mostly Cloudy
9:51 AM 34.4 °C 34.4 °C 16.1 °C 33% 1012.5 hPa 16.1 km South 5.6 km/h / 1.5 m/s - N/A   Mostly Cloudy
10:51 AM 35.6 °C 35.6 °C 15.6 °C 30% 1011.9 hPa 16.1 km Variable 5.6 km/h / 1.5 m/s - N/A   Mostly Cloudy
11:51 AM 36.7 °C 36.2 °C 14.4 °C 26% 1011.2 hPa 16.1 km Variable 5.6 km/h / 1.5 m/s - N/A   Scattered Clouds
12:51 PM 38.3 °C 37.8 °C 13.9 °C 23% 1009.9 hPa 16.1 km NW 14.8 km/h / 4.1 m/s - N/A   Partly Cloudy
1:51 PM 40.0 °C 39.4 °C 12.8 °C 20% 1008.9 hPa 16.1 km SW 11.1 km/h / 3.1 m/s 29.6 km/h / 8.2 m/s N/A   Partly Cloudy
2:51 PM 39.4 °C 38.5 °C 12.8 °C 20% 1007.5 hPa 16.1 km WNW 13.0 km/h / 3.6 m/s - N/A   Partly Cloudy
3:51 PM 40.6 °C 39.9 °C 12.8 °C 19% 1006.6 hPa 16.1 km West 22.2 km/h / 6.2 m/s 33.3 km/h / 9.3 m/s N/A   Partly Cloudy
4:51 PM 41.7 °C 40.8 °C 11.7 °C 17% 1005.3 hPa 16.1 km West 18.5 km/h / 5.1 m/s 38.9 km/h / 10.8 m/s N/A   Partly Cloudy
5:51 PM 41.1 °C 40.0 °C 11.7 °C 17% 1005.5 hPa 16.1 km West 16.7 km/h / 4.6 m/s - N/A   Mostly Cloudy
6:51 PM 41.1 °C - 11.1 °C 17% 1005.8 hPa 16.1 km West 14.8 km/h / 4.1 m/s - N/A   Mostly Cloudy
7:51 PM 41.1 °C - 11.1 °C 17% 1005.6 hPa 16.1 km West 13.0 km/h / 3.6 m/s - N/A   Mostly Cloudy
8:51 PM 40.0 °C 38.8 °C 11.7 °C 18% 1006.4 hPa 16.1 km East 14.8 km/h / 4.1 m/s - N/A   Overcast
9:51 PM 38.9 °C 37.9 °C 12.2 °C 20% 1007.0 hPa 16.1 km SE 14.8 km/h / 4.1 m/s - N/A   Overcast
10:41 PM 35.0 °C 34.1 °C 13.3 °C 27% 1009.4 hPa 16.1 km SE 37.0 km/h / 10.3 m/s 46.3 km/h / 12.9 m/s N/A   Overcast
10:51 PM 35.0 °C 34.1 °C 13.3 °C 27% 1007.6 hPa 16.1 km SSE 20.4 km/h / 5.7 m/s 44.4 km/h / 12.3 m/s N/A   Overcast
11:51 PM 32.8 °C 31.8 °C 13.3 °C 30% 1008.5 hPa 16.1 km SE 33.3 km/h / 9.3 m/s 42.6 km/h / 11.8 m/s N/A   Overcast